Meteo Giornale » Osservazioni meteo Francia » Parigi-Orly

ore: 00:00 - Osservazioni Meteo Parigi-Orly
Lat. 48° 44' N Lon. 2° 24' E Alt. 89 metri s.l.m.

sereno Europe/Paris

26 °C

Sereno

Temp. 24 Ore

22 °C

34 °C

Nord

0 Km/h

Dew point 16 °C

Umidità 54 %

Visibilità  10 Km

Il sole sorge alle ore 06:36

Il sole tramonta alle ore 21:14

Data e Ora Cielo e Fenomeni T °C DP °C Um. % Pres. hPa Vis. km Vento km/h
Oggi h: 00:00 sereno Sereno 26 16 54 1013 10 N 0
Ieri h: 23:30 sereno Sereno 26 16 54 1013 10 N 0
Ieri h: 23:00 sereno Sereno 26 15 50 1013 10 N 5.5
Ieri h: 22:30 sereno Sereno 28 15 45 1013 10 E/SE 7.4
Ieri h: 22:00 sereno Sereno 29 16 45 1013 10 E/SE 7.4
Ieri h: 21:30 sereno Sereno 30 15 40 1013 10 E 9.3
Ieri h: 21:00 sereno Sereno 31 15 37 1012 10 E 9.3
Ieri h: 20:30 sereno Sereno 32 14 33 1012 10 E 11.1
Ieri h: 20:00 sereno Sereno 32 14 33 1012 10 E 13
Ieri h: 19:30 sereno Sereno 33 15 33 1012 10 NE 13
Ieri h: 19:00 sereno Sereno 34 14 30 1012 10 E/NE 16.7
Ieri h: 18:30 sereno Sereno 34 15 32 1011 10 E/NE 13
Ieri h: 18:00 sereno Sereno 34 15 32 1011 10 N 9.3
Ieri h: 17:30 sereno Sereno 34 15 32 1012 10 NE 14.8
Ieri h: 17:00 sereno Sereno 34 15 32 1012 10 N 7.4
Ieri h: 16:30 sereno Sereno 34 15 32 1012 10 N/NE 9.3
Ieri h: 16:00 sereno Sereno 34 15 32 1012 10 N/NE 7.4
Ieri h: 15:30 sereno Sereno 34 15 32 1013 10 N/NE 7.4
Ieri h: 15:00 sereno Sereno 34 16 34 1013 10 E 7.4
Ieri h: 14:30 sereno Sereno 33 16 36 1013 10 N 7.4
Ieri h: 14:00 sereno Sereno 33 17 38 1013 10 E/SE 7.4
Ieri h: 13:30 sereno Sereno 32 16 38 1013 10 N 5.5
Ieri h: 13:00 sereno Sereno 33 16 36 1013 10 E 9.3
Ieri h: 12:30 sereno Sereno 32 15 35 1013 10 NE 7.4
Ieri h: 12:00 sereno Sereno 32 16 38 1013 10 N 5.5
Ieri h: 11:30 sereno Sereno 31 16 40 1013 10 N 5.5
Ieri h: 11:00 sereno Sereno 30 15 40 1013 10 N 3.7
Ieri h: 10:30 sereno Sereno 29 16 45 1013 10 O 9.3
Ieri h: 10:00 sereno Sereno 27 17 54 1013 10 N 5.5
Ieri h: 09:30 sereno Sereno 26 17 57 1013 10 O/SO 7.4
Ieri h: 09:00 sereno Sereno 24 17 64 1013 10 SO 7.4
Ieri h: 08:30 sereno Sereno 23 17 68 1013 10 N 5.5
Ieri h: 07:30 sereno Sereno 22 17 73 1013 10 N 1.8
Ieri h: 06:00 sereno Sereno 23 16 64 1013 10 S 7.4
Ieri h: 05:30 sereno Sereno 24 16 60 1014 10 S/SE 7.4
Ieri h: 05:00 sereno Sereno 25 16 57 1014 10 NE 9.3
Ieri h: 04:30 sereno Sereno 25 16 57 1014 10 N 3.7
Ieri h: 04:00 sereno Sereno 24 16 60 1013 10 N 5.5
Ieri h: 03:30 sereno Sereno 25 16 57 1013 10 N 5.5
Ieri h: 03:00 sereno Sereno 25 16 57 1013 10 O 7.4
Ieri h: 02:30 sereno Sereno 25 16 57 1013 10 S/SO 11.1
Ieri h: 02:00 sereno Sereno 25 15 53 1012 10 O/SO 11.1
Ieri h: 01:30 sereno Sereno 25 15 53 1012 10 O 9.3
Ieri h: 01:00 molto_nuvoloso Molto Nuvoloso 25 16 57 1014 10 NE 9.3